| time (UTC) | temp C | wind direction | speed KPH | gust KPH | rain 1hr cm | rain 24hr cm | rain mn cm | humidity % | barometer mb |
| 20260504081522 | 10 | 257 | 0.0 | 8.0 | 0.00 | 0.00 | 0.00 | 45 | 1002.8 |
| 20260504050011 | 13 | 306 | 0.0 | 0.0 | 0.00 | 0.00 | 0.00 | 35 | 1002.6 |
| 20260504044609 | 14 | 306 | 0.0 | 0.0 | 0.00 | 0.00 | 0.00 | 32 | 1002.6 |
| 20260504043050 | 15 | 306 | 0.0 | 0.0 | 0.00 | 0.00 | 0.00 | 31 | 1002.6 |
| 20260504041541 | 15 | 306 | 0.0 | 0.0 | 0.00 | 0.00 | 0.00 | 29 | 1002.6 |
| 20260504040027 | 16 | 306 | 0.0 | 0.0 | 0.00 | 0.00 | 0.00 | 27 | 1002.6 |
| 20260504034524 | 16 | 306 | 0.0 | 0.0 | 0.00 | 0.00 | 0.00 | 26 | 1002.6 |
| 20260504033020 | 17 | 306 | 0.0 | 0.0 | 0.00 | 0.00 | 0.00 | 23 | 1002.5 |
| 20260504031520 | 18 | 309 | 0.0 | 0.0 | 0.00 | 0.00 | 0.00 | 21 | 1002.3 |
| 20260504030013 | 19 | 302 | 0.0 | 0.0 | 0.00 | 0.00 | 0.00 | 19 | 1002.2 |
| 20260504024509 | 20 | 313 | 0.0 | 0.0 | 0.00 | 0.00 | 0.00 | 19 | 1002.1 |
| 20260504023005 | 21 | 311 | 0.0 | 4.8 | 0.00 | 0.00 | 0.00 | 18 | 1002.0 |
| 20260504021501 | 22 | 319 | 0.0 | 3.2 | 0.00 | 0.00 | 0.00 | 17 | 1001.9 |
| 20260504020044 | 22 | 325 | 0.0 | 11.3 | 0.00 | 0.00 | 0.00 | 17 | 1001.9 |
| 20260504014541 | 23 | 336 | 0.0 | 16.1 | 0.00 | 0.00 | 0.00 | 17 | 1001.9 |
| 20260504013032 | 23 | 280 | 0.0 | 6.4 | 0.00 | 0.00 | 0.00 | 18 | 1001.9 |
| 20260504011522 | 23 | 279 | 0.0 | 1.6 | 0.00 | 0.00 | 0.00 | 19 | 1002.0 |
| 20260504010002 | 23 | 284 | 0.0 | 14.5 | 0.00 | 0.00 | 0.00 | 18 | 1002.2 |
| 20260504004502 | 23 | 288 | 0.0 | 14.5 | 0.00 | 0.00 | 0.00 | 18 | 1002.2 |
| 20260504003053 | 23 | 278 | 0.0 | 9.7 | 0.00 | 0.00 | 0.00 | 17 | 1002.4 |
| 20260504001549 | 23 | 288 | 0.0 | 16.1 | 0.00 | 0.00 | 0.00 | 18 | 1002.6 |
| 20260504000112 | 23 | 287 | 0.0 | 17.7 | 0.00 | 0.00 | 0.00 | 18 | 1002.7 |
| 20260503234552 | 24 | 271 | 6.4 | 20.9 | 0.00 | 0.00 | 0.00 | 18 | 1002.9 |
| 20260503233043 | 24 | 321 | 0.0 | 9.7 | 0.00 | 0.00 | 0.00 | 18 | 1003.0 |
| 20260503231541 | 23 | 288 | 0.0 | 19.3 | 0.00 | 0.00 | 0.00 | 18 | 1003.2 |
| 20260503230039 | 23 | 24 | 0.0 | 22.5 | 0.00 | 0.00 | 0.00 | 19 | 1003.3 |
| 20260503224537 | 23 | 317 | 0.0 | 24.1 | 0.00 | 0.00 | 0.00 | 19 | 1003.5 |
| 20260503223017 | 23 | 306 | 12.9 | 24.1 | 0.00 | 0.00 | 0.00 | 20 | 1003.8 |
| 20260503221514 | 23 | 246 | 8.0 | 24.1 | 0.00 | 0.00 | 0.00 | 21 | 1004.0 |
| 20260503220002 | 23 | 336 | 9.7 | 20.9 | 0.00 | 0.00 | 0.00 | 21 | 1004.2 |
| 20260503214558 | 23 | 311 | 3.2 | 24.1 | 0.00 | 0.00 | 0.00 | 23 | 1004.5 |
| 20260503213102 | 22 | 276 | 6.4 | 22.5 | 0.00 | 0.00 | 0.00 | 22 | 1004.7 |
| 20260503211608 | 22 | 307 | 0.0 | 17.7 | 0.00 | 0.00 | 0.00 | 23 | 1005.1 |
| 20260503210051 | 22 | 287 | 11.3 | 27.4 | 0.00 | 0.00 | 0.00 | 23 | 1005.4 |
| 20260503204549 | 22 | 355 | 9.7 | 19.3 | 0.00 | 0.00 | 0.00 | 23 | 1005.7 |
| 20260503203104 | 22 | 345 | 12.9 | 24.1 | 0.00 | 0.00 | 0.00 | 22 | 1005.8 |
| 20260503201546 | 22 | 273 | 1.6 | 16.1 | 0.00 | 0.00 | 0.00 | 21 | 1006.0 |
| 20260503200027 | 22 | 273 | 4.8 | 14.5 | 0.00 | 0.00 | 0.00 | 21 | 1006.2 |
| 20260503194526 | 22 | 275 | 0.0 | 22.5 | 0.00 | 0.00 | 0.00 | 21 | 1006.3 |
| 20260503193012 | 22 | 321 | 1.6 | 11.3 | 0.00 | 0.00 | 0.00 | 23 | 1006.7 |
| 20260503191510 | 21 | 301 | 3.2 | 19.3 | 0.00 | 0.00 | 0.00 | 25 | 1006.9 |
| 20260503190008 | 20 | 258 | 3.2 | 20.9 | 0.00 | 0.00 | 0.00 | 27 | 1007.3 |
| 20260503184508 | 20 | 250 | 0.0 | 9.7 | 0.00 | 0.00 | 0.00 | 29 | 1007.6 |
| 20260503183005 | 20 | 265 | 1.6 | 16.1 | 0.00 | 0.00 | 0.00 | 29 | 1007.9 |
| 20260503181504 | 20 | 279 | 0.0 | 8.0 | 0.00 | 0.00 | 0.00 | 30 | 1008.3 |
| 20260503180002 | 20 | 5 | 0.0 | 11.3 | 0.00 | 0.00 | 0.00 | 31 | 1008.5 |
| 20260503174559 | 19 | 236 | 0.0 | 6.4 | 0.00 | 0.00 | 0.00 | 32 | 1008.8 |
| 20260503173055 | 18 | 217 | 0.0 | 6.4 | 0.00 | 0.00 | 0.00 | 34 | 1008.9 |
| 20260503171545 | 17 | 187 | 0.0 | 11.3 | 0.00 | 0.00 | 0.00 | 37 | 1009.2 |